Camarillo, California, United States (93010)
Lat: 34.22N, Lon: 119.04W
Wx Zone: CAZ040
Local Info
Past Weather Observations for Today

NOTE: This archive is for the closest National Weather Service station to Camarillo. Information may differ from the station used for current weather conditions.

Click here for Long-term Archive

Time Weather Temperature Dewpoint Humidity Pressure Winds Precip Visibility
21:55
Overcast
63°F / 17°C 59°F / 15°C 88% 29.92 in
(1013 mb)
SW 3.5 mph
(SW 6 kph)
- 10SM
20:55
Overcast
64°F / 18°C 59°F / 15°C 83% 29.92 in
(1013 mb)
SSW 4.6 mph
(SSW 7 kph)
- 9SM
20:32
Mostly Cloudy
64°F / 18°C 59°F / 15°C 83% 29.92 in
(1013 mb)
SW 4.6 mph
(SW 7 kph)
- 10SM
19:55
Clear
63°F / 17°C 59°F / 15°C 88% 29.92 in
(1013 mb)
W 3.5 mph
(W 6 kph)
- 10SM
18:55
Clear
64°F / 18°C 59°F / 15°C 83% 29.92 in
(1013 mb)
SSW 6.9 mph
(SSW 11 kph)
- 10SM
17:55
Clear
66°F / 19°C 59°F / 15°C 78% 29.89 in
(1012 mb)
SSW 10.4 mph
(SSW 17 kph)
- 10SM
16:55
Clear
70°F / 21°C 59°F / 15°C 69% 29.89 in
(1012 mb)
SSW 8.1 mph
(SSW 13 kph)
- 10SM
15:55
Clear
72°F / 22°C 61°F / 16°C 69% 29.89 in
(1012 mb)
SSW 10.4 mph
(SSW 17 kph)
- 10SM
14:55
Clear
73°F / 23°C 61°F / 16°C 65% 29.89 in
(1012 mb)
SW 10.4 mph
(SW 17 kph)
- 8SM
13:55
Clear
73°F / 23°C 61°F / 16°C 65% 29.92 in
(1013 mb)
SSW 12.7 mph
(SSW 20 kph)
- 8SM
12:55
Partly Cloudy
73°F / 23°C 61°F / 16°C 65% 29.92 in
(1013 mb)
SW 12.7 mph
(SW 20 kph)
- 8SM
11:55
Partly Cloudy
Hazy
72°F / 22°C 61°F / 16°C 69% 29.95 in
(1014 mb)
SW 11.5 mph
(SW 19 kph)
- 7SM
10:55
Clear
Hazy
73°F / 23°C 61°F / 16°C 65% 29.95 in
(1014 mb)
SW 10.4 mph
(SW 17 kph)
- 6SM
09:55
Clear
Hazy
72°F / 22°C 61°F / 16°C 69% 29.98 in
(1015 mb)
Variable 6.9 mph
(Variable 11 kph)
- 6SM
08:55
Clear
68°F / 20°C 61°F / 16°C 78% 29.98 in
(1015 mb)
SSW 4.6 mph
(SSW 7 kph)
- 7SM
07:55
Clear
Hazy
64°F / 18°C 59°F / 15°C 83% 29.98 in
(1015 mb)
Calm - 6SM
06:55
Partly Cloudy
Fog And Mist
63°F / 17°C 59°F / 15°C 88% 29.98 in
(1015 mb)
Calm - 5SM
06:53
Partly Cloudy
Fog And Mist
63°F / 17°C 59°F / 15°C 88% 29.98 in
(1015 mb)
Calm - 5SM
06:46
Mostly Cloudy
Fog And Mist
63°F / 17°C 59°F / 15°C 88% 29.98 in
(1015 mb)
Calm - 5SM
06:27
Mostly Cloudy
Fog And Mist
63°F / 17°C 57°F / 14°C 83% 29.98 in
(1015 mb)
Calm - 6SM
06:02
Partly Cloudy
Fog And Mist
61°F / 16°C 57°F / 14°C 88% 29.98 in
(1015 mb)
NNE 3.5 mph
(NNE 6 kph)
- 6SM
05:55
Clear
Fog And Mist
61°F / 16°C 55°F / 13°C 83% 29.98 in
(1015 mb)
NE 3.5 mph
(NE 6 kph)
- 6SM
04:55
Clear
Fog And Mist
59°F / 15°C 57°F / 14°C 94% 29.95 in
(1014 mb)
Calm - 6SM
03:55
Clear
61°F / 16°C 55°F / 13°C 83% 29.95 in
(1014 mb)
Calm - 8SM
02:55
Clear
61°F / 16°C 57°F / 14°C 88% 29.95 in
(1014 mb)
Calm - 8SM
01:55
Clear
63°F / 17°C 57°F / 14°C 83% 29.95 in
(1014 mb)
Calm - 8SM
00:55
Clear
63°F / 17°C 57°F / 14°C 83% 29.95 in
(1014 mb)
Calm - 8SM
Time Weather Temperature Dewpoint Humidity Pressure Winds Precip Visibility


Weather for websites

WeatherForYou.com, LLC is not responsible for any damages or problems caused by this service. Current weather conditions are obtained from the closest station including government and personal stations which may have varying degrees of accuracy. Weather forecasts are derived from the NOAA NDFD. Like all things, this site belongs to Jesus Christ... He just trusts us to maintain it. If you have any questions or comments email webmaster@weatherforyou.com

Copyright © 2016, WeatherForYou.com LLC. All rights reserved.